IW9GTD-13 Weather Reports


time (UTC)temp
C
wind
direction
speed
KPH
gust
KPH
rain 1hr
cm
rain 24hr
cm
rain mn
cm
humidity
%
barometer
mb
20260906113823 31 321 4.8 11.3 0.00 0.00 0.00 66 1019.9
20260906113323 31 321 4.8 9.7 0.00 0.00 0.00 66 1019.9
20260906112823 31 317 4.8 9.7 0.00 0.00 0.00 66 1019.9
20260906112323 31 317 4.8 9.7 0.00 0.00 0.00 66 1019.9
20260906111823 31 320 4.8 9.7 0.00 0.00 0.00 66 1019.9
20260906111323 31 321 4.8 9.7 0.00 0.00 0.00 65 1019.9
20260906110822 32 316 4.8 9.7 0.00 0.00 0.00 65 1019.9
20260906110322 31 322 4.8 9.7 0.00 0.00 0.00 65 1020.0
20260906105823 31 316 4.8 9.7 0.00 0.00 0.00 67 1020.0
20260906105323 31 309 6.4 11.3 0.00 0.00 0.00 67 1020.0
20260906104822 31 311 4.8 9.7 0.00 0.00 0.00 66 1020.0
20260906104323 30 306 6.4 9.7 0.00 0.00 0.00 68 1020.0
20260906103822 31 303 6.4 12.9 0.00 0.00 0.00 66 1020.0
20260906103322 30 306 6.4 12.9 0.00 0.00 0.00 67 1020.1
20260906102823 31 307 6.4 9.7 0.00 0.00 0.00 65 1020.1
20260906102323 31 307 4.8 8.0 0.00 0.00 0.00 64 1020.1
20260906101823 31 306 4.8 9.7 0.00 0.00 0.00 65 1020.2
20260906101323 31 307 4.8 9.7 0.00 0.00 0.00 65 1020.3
20260906100822 31 308 4.8 9.7 0.00 0.00 0.00 66 1020.3
20260906100322 30 304 4.8 9.7 0.00 0.00 0.00 67 1020.4
20260906095822 30 303 4.8 9.7 0.00 0.00 0.00 67 1020.4
20260906095323 30 303 6.4 9.7 0.00 0.00 0.00 68 1020.4
20260906094823 30 308 6.4 9.7 0.00 0.00 0.00 68 1020.3
20260906094322 31 306 4.8 8.0 0.00 0.00 0.00 67 1020.4
20260906093823 30 300 6.4 9.7 0.00 0.00 0.00 68 1020.4
20260906093322 30 311 6.4 9.7 0.00 0.00 0.00 68 1020.5
20260906092823 30 317 4.8 8.0 0.00 0.00 0.00 67 1020.5
20260906092323 30 321 4.8 8.0 0.00 0.00 0.00 67 1020.4
20260906091823 30 319 4.8 9.7 0.00 0.00 0.00 67 1020.5
20260906091323 30 304 4.8 8.0 0.00 0.00 0.00 68 1020.5
20260906090823 30 299 4.8 9.7 0.00 0.00 0.00 68 1020.5
20260906090322 30 314 4.8 8.0 0.00 0.00 0.00 67 1020.5
20260906085822 30 323 4.8 8.0 0.00 0.00 0.00 67 1020.5
20260906085323 30 324 4.8 9.7 0.00 0.00 0.00 67 1020.6
20260906084822 30 324 4.8 9.7 0.00 0.00 0.00 68 1020.5
20260906084323 30 316 3.2 6.4 0.00 0.00 0.00 68 1020.5
20260906083823 30 301 4.8 8.0 0.00 0.00 0.00 71 1020.5
20260906083323 30 306 4.8 9.7 0.00 0.00 0.00 71 1020.4
20260906082823 30 311 3.2 8.0 0.00 0.00 0.00 70 1020.4
20260906082323 30 306 4.8 8.0 0.00 0.00 0.00 70 1020.4
20260906081823 30 297 3.2 8.0 0.00 0.00 0.00 71 1020.3
20260906081323 30 308 3.2 6.4 0.00 0.00 0.00 70 1020.2
20260906080823 30 311 3.2 6.4 0.00 0.00 0.00 71 1020.2
20260906080323 30 314 3.2 6.4 0.00 0.00 0.00 72 1020.2
20260906075826 30 313 3.2 8.0 0.00 0.00 0.00 72 1020.0
20260906075322 30 310 3.2 6.4 0.00 0.00 0.00 71 1020.0
20260906074823 30 306 3.2 4.8 0.00 0.00 0.00 70 1020.0
20260906074323 30 315 1.6 6.4 0.00 0.00 0.00 70 1019.9
20260906073823 30 323 1.6 4.8 0.00 0.00 0.00 69 1019.9
20260906073323 30 327 1.6 3.2 0.00 0.00 0.00 69 1019.9
20260906072823 30 321 1.6 4.8 0.00 0.00 0.00 69 1019.8
20260906072323 30 325 1.6 3.2 0.00 0.00 0.00 69 1019.8
20260906071823 31 302 1.6 3.2 0.00 0.00 0.00 67 1019.7
20260906071322 31 211 0.0 1.6 0.00 0.00 0.00 67 1019.6
20260906070823 30 240 0.0 1.6 0.00 0.00 0.00 68 1019.7
20260906070323 30 163 0.0 1.6 0.00 0.00 0.00 69 1019.6
20260906065824 29 80 0.0 1.6 0.00 0.00 0.00 71 1019.6
20260906065323 28 131 0.0 1.6 0.00 0.00 0.00 72 1019.6
20260906064823 28 136 1.6 1.6 0.00 0.00 0.00 73 1019.6
20260906064323 28 135 1.6 1.6 0.00 0.00 0.00 73 1019.6
20260906063823 27 120 1.6 1.6 0.00 0.00 0.00 72 1019.4
20260906063323 27 117 1.6 1.6 0.00 0.00 0.00 74 1019.4
20260906062823 27 116 1.6 3.2 0.00 0.00 0.00 73 1019.3
20260906062323 26 118 1.6 3.2 0.00 0.00 0.00 74 1019.3
20260906061822 26 118 1.6 3.2 0.00 0.00 0.00 75 1019.3
20260906061323 25 116 1.6 3.2 0.00 0.00 0.00 75 1019.3
20260906060823 25 112 1.6 1.6 0.00 0.00 0.00 75 1019.4
20260906060323 25 114 1.6 3.2 0.00 0.00 0.00 77 1019.3
20260906055823 24 114 1.6 3.2 0.00 0.00 0.00 78 1019.3
20260906055323 23 115 1.6 1.6 0.00 0.00 0.00 79 1019.3
20260906054823 23 116 1.6 3.2 0.00 0.00 0.00 80 1019.3
20260906054323 23 120 1.6 3.2 0.00 0.00 0.00 81 1019.2
20260906053823 22 121 1.6 3.2 0.00 0.00 0.00 80 1019.2
20260906053323 22 122 1.6 3.2 0.00 0.00 0.00 80 1019.1
20260906052823 22 121 1.6 3.2 0.00 0.00 0.00 81 1019.1
20260906052323 22 119 1.6 3.2 0.00 0.00 0.00 82 1019.1
20260906051823 22 119 1.6 3.2 0.00 0.00 0.00 83 1019.1
20260906051323 22 119 3.2 3.2 0.00 0.00 0.00 82 1019.1
20260906050823 22 119 1.6 3.2 0.00 0.00 0.00 82 1019.1
20260906050323 22 119 1.6 3.2 0.00 0.00 0.00 83 1019.0
20260906045823 22 112 1.6 3.2 0.00 0.00 0.00 83 1019.1
20260906045323 22 112 1.6 1.6 0.00 0.00 0.00 83 1019.0
20260906044823 22 84 0.0 1.6 0.00 0.00 0.00 82 1019.0
20260906044323 22 72 1.6 1.6 0.00 0.00 0.00 81 1019.0
20260906043823 22 110 1.6 1.6 0.00 0.00 0.00 82 1018.9
20260906043323 22 114 1.6 3.2 0.00 0.00 0.00 81 1018.9
20260906042823 21 116 1.6 3.2 0.00 0.00 0.00 82 1018.9
20260906042323 21 115 1.6 3.2 0.00 0.00 0.00 81 1018.8
20260906041823 22 116 1.6 3.2 0.00 0.00 0.00 80 1018.7
20260906041323 22 116 1.6 1.6 0.00 0.00 0.00 80 1018.6
20260906040823 22 117 1.6 1.6 0.00 0.00 0.00 79 1018.6
20260906040323 22 121 1.6 1.6 0.00 0.00 0.00 80 1018.6
20260906035823 22 120 1.6 3.2 0.00 0.00 0.00 79 1018.6
20260906035323 22 119 1.6 1.6 0.00 0.00 0.00 79 1018.6
20260906034823 22 120 1.6 1.6 0.00 0.00 0.00 79 1018.5
20260906034323 22 122 1.6 1.6 0.00 0.00 0.00 79 1018.5
20260906033823 22 127 1.6 1.6 0.00 0.00 0.00 78 1018.6
20260906033323 22 128 1.6 1.6 0.00 0.00 0.00 78 1018.6
20260906032823 22 125 1.6 1.6 0.00 0.00 0.00 78 1018.5
20260906032323 22 125 1.6 1.6 0.00 0.00 0.00 78 1018.6
20260906031823 22 157 1.6 1.6 0.00 0.00 0.00 78 1018.6
20260906031323 22 123 1.6 1.6 0.00 0.00 0.00 78 1018.6
20260906030823 22 120 1.6 1.6 0.00 0.00 0.00 78 1018.5
20260906030323 22 120 1.6 1.6 0.00 0.00 0.00 79 1018.5
20260906025823 22 123 1.6 3.2 0.00 0.00 0.00 79 1018.5
20260906025323 22 126 1.6 1.6 0.00 0.00 0.00 79 1018.5
20260906024824 22 125 1.6 1.6 0.00 0.00 0.00 79 1018.5
20260906024323 22 125 1.6 1.6 0.00 0.00 0.00 78 1018.5
20260906023824 22 126 1.6 1.6 0.00 0.00 0.00 79 1018.5
20260906023323 22 120 1.6 1.6 0.00 0.00 0.00 79 1018.5
20260906022823 22 111 1.6 1.6 0.00 0.00 0.00 79 1018.5
20260906022323 22 134 1.6 1.6 0.00 0.00 0.00 79 1018.5
20260906021824 22 121 1.6 1.6 0.00 0.00 0.00 80 1018.6
20260906021323 22 128 1.6 1.6 0.00 0.00 0.00 80 1018.5
20260906020824 22 128 1.6 1.6 0.00 0.00 0.00 81 1018.5
20260906020323 22 139 1.6 1.6 0.00 0.00 0.00 81 1018.5
20260906015823 22 142 1.6 1.6 0.00 0.00 0.00 80 1018.6
20260906015323 22 142 1.6 1.6 0.00 0.00 0.00 80 1018.5
20260906014823 22 169 0.0 1.6 0.00 0.00 0.00 80 1018.5
20260906014324 22 85 0.0 1.6 0.00 0.00 0.00 80 1018.6
20260906013823 22 126 0.0 1.6 0.00 0.00 0.00 80 1018.6
20260906013323 22 126 1.6 1.6 0.00 0.00 0.00 81 1018.6
20260906012823 22 134 0.0 1.6 0.00 0.00 0.00 80 1018.6
20260906012323 22 137 1.6 1.6 0.00 0.00 0.00 80 1018.6
20260906011823 22 136 1.6 1.6 0.00 0.00 0.00 79 1018.7
20260906011323 23 136 1.6 1.6 0.00 0.00 0.00 78 1018.7
20260906010823 23 136 1.6 1.6 0.00 0.00 0.00 78 1018.6
20260906010323 23 136 1.6 1.6 0.00 0.00 0.00 78 1018.7
20260906005823 23 115 1.6 1.6 0.00 0.00 0.00 79 1018.7
20260906005323 23 116 1.6 1.6 0.00 0.00 0.00 78 1018.7
20260906004823 23 117 1.6 1.6 0.00 0.00 0.00 78 1018.7
20260906004324 23 116 1.6 3.2 0.00 0.00 0.00 79 1018.6
20260906003823 23 117 1.6 3.2 0.00 0.00 0.00 79 1018.6
20260906003324 23 119 1.6 3.2 0.00 0.00 0.00 79 1018.6
20260906002823 23 126 1.6 1.6 0.00 0.00 0.00 79 1018.6
20260906002323 23 101 1.6 1.6 0.00 0.00 0.00 79 1018.6
20260906001824 23 105 1.6 1.6 0.00 0.00 0.00 79 1018.6
20260906001323 23 100 1.6 1.6 0.00 0.00 0.00 79 1018.5
20260906000824 23 94 1.6 1.6 0.00 0.00 0.00 79 1018.5
20260906000326 24 85 1.6 1.6 0.00 0.00 0.00 79 1018.6
20260905235823 24 89 1.6 1.6 0.00 0.00 0.00 79 1018.5
20260905235324 24 104 1.6 1.6 0.00 0.00 0.00 80 1018.6
20260905234823 24 99 1.6 1.6 0.00 0.00 0.00 80 1018.6
20260905234324 24 93 1.6 1.6 0.00 0.00 0.00 80 1018.6
20260905233823 23 100 1.6 1.6 0.00 0.00 0.00 80 1018.7
20260905233324 23 111 1.6 1.6 0.00 0.00 0.00 80 1018.8
20260905232823 23 96 0.0 1.6 0.00 0.00 0.00 79 1018.8
20260905232323 24 102 1.6 1.6 0.00 0.00 0.00 80 1018.8
20260905231823 24 101 0.0 1.6 0.00 0.00 0.00 79 1018.9
20260905231323 24 120 1.6 1.6 0.00 0.00 0.00 79 1018.9
20260905230824 24 120 1.6 1.6 0.00 0.00 0.00 79 1018.9
20260905230323 25 120 0.0 1.6 0.00 0.00 0.00 78 1018.9
20260905225824 25 109 0.0 1.6 0.00 0.00 0.00 79 1018.9
20260905225324 24 96 1.6 1.6 0.00 0.00 0.00 79 1018.9
20260905224823 24 89 1.6 1.6 0.00 0.00 0.00 79 1019.0
20260905224323 24 90 0.0 1.6 0.00 0.00 0.00 78 1019.0
20260905223823 25 80 0.0 1.6 0.00 0.00 0.00 78 1019.0
20260905223324 25 80 0.0 1.6 0.00 0.00 0.00 78 1019.0
20260905222823 25 80 0.0 3.2 0.00 0.00 0.00 77 1018.9
20260905222323 25 55 0.0 0.0 0.00 0.00 0.00 77 1019.0
20260905221823 25 49 0.0 1.6 0.00 0.00 0.00 78 1019.0
20260905221323 25 124 0.0 0.0 0.00 0.00 0.00 78 1018.9
20260905220823 25 94 0.0 1.6 0.00 0.00 0.00 77 1018.9
20260905220323 25 121 0.0 1.6 0.00 0.00 0.00 77 1018.9
20260905215824 25 17 0.0 1.6 0.00 0.00 0.00 76 1018.9
20260905215326 25 136 0.0 1.6 0.00 0.00 0.00 76 1018.9
20260905214826 26 92 0.0 0.0 0.00 0.00 0.00 75 1018.8
20260905214324 26 91 0.0 0.0 0.00 0.00 0.00 76 1018.8
20260905213824 26 68 0.0 1.6 0.00 0.00 0.00 75 1018.7
20260905213323 26 54 0.0 1.6 0.00 0.00 0.00 75 1018.8
20260905212823 26 29 0.0 0.0 0.00 0.00 0.00 75 1018.8
20260905212324 26 50 0.0 1.6 0.00 0.00 0.00 75 1018.9
20260905211824 26 53 0.0 1.6 0.00 0.00 0.00 75 1018.9
20260905211323 26 70 0.0 1.6 0.00 0.00 0.00 75 1018.9
20260905210824 26 57 0.0 1.6 0.00 0.00 0.00 76 1018.9
20260905210323 26 45 1.6 1.6 0.00 0.00 0.00 76 1018.9
20260905205823 26 39 1.6 1.6 0.00 0.00 0.00 75 1018.9
20260905205324 26 28 1.6 1.6 0.00 0.00 0.00 75 1018.8
20260905204824 26 12 1.6 1.6 0.00 0.00 0.00 76 1018.7
20260905204324 26 346 1.6 1.6 0.00 0.00 0.00 76 1018.7
20260905203823 26 336 1.6 3.2 0.00 0.00 0.00 76 1018.7
20260905203324 26 335 1.6 3.2 0.00 0.00 0.00 76 1018.7
20260905202823 26 328 1.6 3.2 0.00 0.00 0.00 76 1018.8
20260905202324 27 325 1.6 1.6 0.00 0.00 0.00 74 1018.8
20260905201823 27 15 0.0 1.6 0.00 0.00 0.00 74 1018.8
20260905201324 27 15 1.6 1.6 0.00 0.00 0.00 74 1018.8
20260905200824 27 16 0.0 3.2 0.00 0.00 0.00 74 1018.8
20260905200325 27 11 0.0 0.0 0.00 0.00 0.00 73 1018.8
20260905195824 27 11 0.0 1.6 0.00 0.00 0.00 73 1018.8
20260905195324 27 39 0.0 1.6 0.00 0.00 0.00 74 1018.8
20260905194824 27 37 1.6 3.2 0.00 0.00 0.00 74 1018.7
20260905194324 27 20 1.6 1.6 0.00 0.00 0.00 74 1018.8
20260905193823 27 7 1.6 3.2 0.00 0.00 0.00 74 1018.7
20260905192824 27 4 1.6 3.2 0.00 0.00 0.00 74 1018.7
20260905192324 27 5 1.6 3.2 0.00 0.00 0.00 74 1018.6
20260905191824 27 3 1.6 3.2 0.00 0.00 0.00 73 1018.6
20260905191325 27 5 3.2 4.8 0.00 0.00 0.00 73 1018.6
20260905190824 27 3 3.2 4.8 0.00 0.00 0.00 73 1018.6
20260905190324 27 5 3.2 4.8 0.00 0.00 0.00 73 1018.6
20260905185824 27 9 1.6 4.8 0.00 0.00 0.00 73 1018.6
20260905185324 27 10 3.2 4.8 0.00 0.00 0.00 73 1018.5
20260905184824 27 17 1.6 4.8 0.00 0.00 0.00 72 1018.5
20260905184324 27 17 1.6 4.8 0.00 0.00 0.00 72 1018.4
20260905183824 27 11 3.2 4.8 0.00 0.00 0.00 73 1018.3
20260905183324 27 8 3.2 4.8 0.00 0.00 0.00 73 1018.3
20260905182824 27 2 3.2 4.8 0.00 0.00 0.00 73 1018.2
20260905181824 27 356 1.6 4.8 0.00 0.00 0.00 73 1018.3
20260905181324 28 357 3.2 6.4 0.00 0.00 0.00 73 1018.2
20260905180824 28 0 1.6 3.2 0.00 0.00 0.00 72 1018.2
20260905180324 28 358 1.6 3.2 0.00 0.00 0.00 72 1018.1
20260905175824 28 356 1.6 4.8 0.00 0.00 0.00 72 1018.0
20260905175324 28 1 1.6 4.8 0.00 0.00 0.00 72 1017.9
20260905174824 28 0 3.2 6.4 0.00 0.00 0.00 72 1017.9
20260905174324 28 1 3.2 4.8 0.00 0.00 0.00 72 1017.8
20260905173824 28 358 3.2 4.8 0.00 0.00 0.00 72 1017.8
20260905173324 28 355 3.2 6.4 0.00 0.00 0.00 71 1017.9
20260905172824 28 357 3.2 6.4 0.00 0.00 0.00 71 1017.8
20260905172324 28 356 3.2 6.4 0.00 0.00 0.00 71 1017.8
20260905171824 28 359 3.2 6.4 0.00 0.00 0.00 71 1017.8
20260905171324 29 355 3.2 4.8 0.00 0.00 0.00 70 1017.9
20260905170824 29 351 3.2 9.7 0.00 0.00 0.00 69 1017.8
20260905170324 29 356 4.8 8.0 0.00 0.00 0.00 68 1017.9
20260905165825 30 3 3.2 8.0 0.00 0.00 0.00 68 1017.9
20260905165324 30 4 3.2 9.7 0.00 0.00 0.00 68 1018.0
20260905164824 30 8 4.8 9.7 0.00 0.00 0.00 69 1018.1
20260905164324 30 3 3.2 6.4 0.00 0.00 0.00 68 1018.0
20260905163824 30 1 4.8 9.7 0.00 0.00 0.00 69 1018.0
20260905163324 30 356 4.8 11.3 0.00 0.00 0.00 67 1018.0
20260905162824 30 348 4.8 8.0 0.00 0.00 0.00 67 1018.0
20260905162324 30 343 4.8 8.0 0.00 0.00 0.00 67 1018.0
20260905161824 30 349 4.8 9.7 0.00 0.00 0.00 68 1018.0
20260905161324 30 352 4.8 9.7 0.00 0.00 0.00 67 1018.0
20260905160824 31 345 4.8 9.7 0.00 0.00 0.00 66 1018.1
20260905160324 31 341 4.8 9.7 0.00 0.00 0.00 65 1018.1
20260905155824 31 347 4.8 9.7 0.00 0.00 0.00 66 1018.1
20260905155324 31 347 4.8 9.7 0.00 0.00 0.00 66 1018.1
20260905154825 31 348 4.8 9.7 0.00 0.00 0.00 66 1018.1
20260905154324 31 352 4.8 9.7 0.00 0.00 0.00 65 1018.1
20260905153824 30 349 4.8 11.3 0.00 0.00 0.00 66 1018.1
20260905153324 31 344 6.4 11.3 0.00 0.00 0.00 66 1018.1
20260905152824 31 349 4.8 14.5 0.00 0.00 0.00 66 1018.2
20260905152324 31 351 6.4 9.7 0.00 0.00 0.00 65 1018.2
20260905151824 31 345 4.8 9.7 0.00 0.00 0.00 67 1018.3
20260905151324 31 336 6.4 12.9 0.00 0.00 0.00 66 1018.3
20260905150824 31 336 6.4 9.7 0.00 0.00 0.00 65 1018.3
20260905150324 31 340 6.4 11.3 0.00 0.00 0.00 65 1018.3
20260905145824 31 337 4.8 11.3 0.00 0.00 0.00 65 1018.3
20260905145324 31 328 6.4 12.9 0.00 0.00 0.00 65 1018.2
20260905144825 31 334 6.4 12.9 0.00 0.00 0.00 65 1018.3
20260905144324 32 341 4.8 9.7 0.00 0.00 0.00 63 1018.3
20260905143825 32 329 3.2 11.3 0.00 0.00 0.00 62 1018.4
20260905143325 32 333 4.8 12.9 0.00 0.00 0.00 63 1018.3
20260905142824 32 326 4.8 12.9 0.00 0.00 0.00 62 1018.3
20260905142324 32 318 4.8 11.3 0.00 0.00 0.00 63 1018.4
20260905141824 32 327 6.4 11.3 0.00 0.00 0.00 63 1018.3
20260905141326 32 343 4.8 9.7 0.00 0.00 0.00 62 1018.5
20260905140825 31 343 6.4 11.3 0.00 0.00 0.00 63 1018.5
20260905140325 32 330 6.4 11.3 0.00 0.00 0.00 63 1018.5
20260905135824 32 339 4.8 9.7 0.00 0.00 0.00 62 1018.5
20260905135324 32 345 4.8 11.3 0.00 0.00 0.00 62 1018.5
20260905134825 32 351 4.8 9.7 0.00 0.00 0.00 62 1018.6
20260905134324 32 356 6.4 12.9 0.00 0.00 0.00 62 1018.6
20260905133824 31 358 6.4 11.3 0.00 0.00 0.00 62 1018.6
20260905133324 32 349 4.8 9.7 0.00 0.00 0.00 62 1018.7
20260905132824 32 338 6.4 12.9 0.00 0.00 0.00 62 1018.7
20260905132325 32 335 6.4 11.3 0.00 0.00 0.00 61 1018.7
20260905131824 32 341 6.4 12.9 0.00 0.00 0.00 62 1018.8
20260905131324 32 338 6.4 12.9 0.00 0.00 0.00 62 1018.8
20260905130824 32 331 6.4 12.9 0.00 0.00 0.00 61 1018.7
20260905130324 32 339 6.4 12.9 0.00 0.00 0.00 63 1018.8
20260905125825 32 341 4.8 11.3 0.00 0.00 0.00 61 1018.9
20260905125325 32 339 6.4 14.5 0.00 0.00 0.00 63 1018.9
20260905124824 33 353 6.4 12.9 0.00 0.00 0.00 60 1019.0
20260905124325 32 1 6.4 11.3 0.00 0.00 0.00 61 1019.1
20260905123824 32 358 6.4 11.3 0.00 0.00 0.00 61 1019.1
20260905123324 32 344 6.4 12.9 0.00 0.00 0.00 62 1019.1
20260905122824 32 337 6.4 12.9 0.00 0.00 0.00 61 1019.1
20260905122324 32 337 6.4 14.5 0.00 0.00 0.00 63 1019.1
20260905121824 32 337 6.4 12.9 0.00 0.00 0.00 63 1019.1
20260905121325 32 341 8.0 14.5 0.00 0.00 0.00 63 1019.2
20260905120824 32 345 6.4 12.9 0.00 0.00 0.00 63 1019.2
20260905120324 31 340 6.4 14.5 0.00 0.00 0.00 63 1019.1
20260905115825 31 329 6.4 17.7 0.00 0.00 0.00 64 1019.1
20260905115324 32 325 6.4 11.3 0.00 0.00 0.00 62 1019.2
20260905114824 32 331 4.8 11.3 0.00 0.00 0.00 62 1019.3
20260905114325 32 336 6.4 9.7 0.00 0.00 0.00 62 1019.2